{"data":{"norad_id":53779,"intl_designator":"2022-111G","name":"STARLINK-4706","alt_names":[],"object_type":"PAYLOAD","status":"ACTIVE","operator":null,"country":"US","launch_date":"2022-09-11","launch_site_code":"AFETR","launch_vehicle":null,"mission":null,"orbit_class":"UNKNOWN","rcs_meters":null,"size_class":null,"mass_kg":null,"dimensions":null,"purposes":["comms"],"wikipedia_slug":null,"has_3d_model":false,"image_url":null,"decayed_at":null,"tle_current":{"epoch":"2026-09-20T23:05:48.074208Z","epoch_age_seconds":44575,"freshness":"FRESH","line1":"1 53779U 22111G   26263.96236197  .00000584  00000+0  30578-4 0  9993","line2":"2 53779  53.1591 103.6752 0001323  86.1379 273.9773 15.31704455223363","mean_motion":15.31704455,"eccentricity":0.0001323,"inclination_deg":53.1591,"raan_deg":103.6752,"arg_perigee_deg":86.1379,"mean_anomaly_deg":273.9773,"bstar":3.0578e-5,"rev_number":22336,"period_min":94.012914521424,"perigee_km":469.82061046514,"apogee_km":471.63281980417,"semimajor_km":6848.8637151347,"source":"CELESTRAK","updated_at":"2026-09-21T09:00:32.992352Z"}}}